Location: Cheyres
(46.8153°N, 6.7877°E)
Time: 20:52:53
(UTC+00:00)

PicSat - Pass Details

Date: 11 July 2022
Orbit: 446 x 455 km, 97.4° (Epoch: 13 August)

Event Time Altitude Azimuth Distance (km) Brightness Sun altitude
Exits shadow 21:48:25 42° 162° (SSE) 669 ? -16.8°
Maximum altitude 21:49:29 86° 75° (ENE) 470 ? -16.9°
Drops below altitude 10° 21:52:58 10° 348° (NNW) 1,624 ? -17.2°
Sets 21:55:02 0° 348° (NNW) 2,505 ? -17.3°
